{"data":{"norad_id":63786,"intl_designator":"2025-091M","name":"STARLINK-33923","alt_names":[],"object_type":"PAYLOAD","status":"ACTIVE","operator":null,"country":"US","launch_date":"2025-05-02","launch_site_code":"AFETR","launch_vehicle":null,"mission":null,"orbit_class":"UNKNOWN","rcs_meters":null,"size_class":null,"mass_kg":null,"dimensions":null,"purposes":["comms"],"wikipedia_slug":null,"has_3d_model":false,"image_url":null,"decayed_at":null,"tle_current":{"epoch":"2026-09-20T19:39:01.594944Z","epoch_age_seconds":122294,"freshness":"FRESH","line1":"1 63786U 25091M   26263.81876846  .00010882  00000+0  40439-3 0  9995","line2":"2 63786  43.0042  30.6263 0001355 316.4762  43.5982 15.27580497 78697","mean_motion":15.27580497,"eccentricity":0.0001355,"inclination_deg":43.0042,"raan_deg":30.6263,"arg_perigee_deg":316.4762,"mean_anomaly_deg":43.5982,"bstar":0.00040439,"rev_number":7869,"period_min":94.266718043861,"perigee_km":482.1179173289,"apogee_km":483.97729835762,"semimajor_km":6861.1846078433,"source":"CELESTRAK","updated_at":"2026-09-21T09:00:35.099843Z"}}}